CAPE
nan nan nan nan nan nan nan nan nan nan nan nan nan nan nan nan nan nan 5 2 2 0 0 0 0 1 8 45 64 64 78 84 86 86 87 83 83 83 80 83 83 82 84 83 83 87 85 86 86 92 91 96 102 102 111 117 117 126 136 149 149 168 182 190 190 217 226 244 253 253 255 252 246 246 225 217 205 205 204 214 214 254 296 326 326 350
nan nan nan nan nan nan nan nan nan nan nan nan nan nan nan nan 0 0 2 5 5 2 1 1 1 0 0 22 64 64 71 78 78 78 78 77 77 77 76 78 78 80 78 77 77 80 83 85 85 89 94 98 104 104 114 121 121 123 137 142 142 163 169 179 179 197 205 208 212 212 212 209 200 200 193 194 200 200 212 210 210 235 253 290 290 324
nan nan nan nan nan nan nan nan nan nan nan nan 0 0 0 2 1 1 3 4 4 4 2 1 1 1 1 12 59 59 66 72 71 71 69 67 68 68 71 69 69 72 71 71 71 76 83 87 87 94 98 101 108 108 115 118 118 120 122 132 132 140 146 149 149 155 162 168 172 172 172 174 175 175 177 195 222 222 243 254 254 250 260 271 271 296
nan nan nan nan nan nan nan nan nan nan 0 1 4 4 2 2 3 3 3 3 3 4 4 2 2 1 0 2 36 36 59 64 65 65 63 63 62 62 64 63 63 65 69 76 76 81 84 88 88 90 98 101 109 109 112 112 112 111 110 116 116 119 122 123 123 127 130 136 145 145 148 157 162 162 177 205 234 234 257 254 254 245 248 252 252 276
nan nan nan nan nan nan nan nan 0 0 2 5 4 4 3 5 5 5 6 5 5 4 2 2 2 0 nan 0 17 17 51 60 57 57 56 53 54 54 59 63 63 69 70 76 76 81 84 90 90 92 96 100 104 104 101 101 101 100 100 103 103 107 109 115 115 120 121 127 136 136 145 155 162 162 182 198 220 220 231 226 226 226 220 241 241 251
nan nan nan nan nan nan nan 1 2 2 3 3 3 3 4 6 8 8 7 5 5 3 1 1 1 0 nan nan 12 12 43 47 45 45 43 44 53 53 62 66 66 70 74 79 79 82 87 90 90 89 92 96 93 93 97 93 93 93 96 100 100 103 111 114 114 117 121 123 131 131 139 149 161 161 170 181 192 192 198 199 199 200 204 214 214 231
1 2 2 0 0 0 0 nan 2 2 1 5 9 9 8 8 5 5 5 2 2 3 2 0 0 nan nan nan 14 14 29 28 31 31 34 45 54 54 66 67 67 71 75 81 81 83 89 89 89 86 90 91 91 91 87 89 89 85 89 93 93 97 102 107 107 110 112 114 120 120 128 134 144 144 152 163 169 169 174 183 183 188 197 206 206 219
3 0 2 1 1 0 2 4 10 10 9 9 7 7 5 1 1 1 1 1 1 1 nan nan nan nan nan nan nan nan nan nan nan nan 2 13 38 38 55 68 68 70 77 79 79 79 80 81 81 79 81 81 80 80 79 73 73 71 70 72 72 77 83 89 89 95 93 99 104 104 107 115 120 120 124 131 136 136 141 152 152 164 187 204 204 216
4 0 0 2 2 8 6 11 18 18 16 9 4 4 2 2 0 0 0 0 0 0 nan nan nan nan nan nan nan nan 1 4 0 0 3 0 2 2 31 53 53 62 69 72 72 73 71 74 74 72 71 72 74 74 70 66 66 62 63 66 66 71 78 84 84 92 95 100 101 101 109 110 110 110 118 117 123 123 129 140 140 154 172 194 194 215
6 5 4 10 10 14 15 14 10 10 7 2 2 2 1 1 0 0 0 0 0 nan nan nan nan nan nan nan nan nan 0 6 38 38 58 40 65 65 46 35 35 30 58 64 64 64 61 59 59 62 61 62 65 65 59 56 56 54 59 61 61 69 75 83 83 86 93 102 106 106 110 114 121 121 126 128 132 132 140 146 146 154 169 195 195 220
12 13 14 16 16 23 20 7 0 0 0 0 0 0 0 0 0 0 0 nan nan nan nan nan nan nan 0 nan 0 0 0 nan 1 1 18 35 46 46 44 36 36 38 49 49 49 48 46 49 49 50 53 53 52 52 47 43 43 49 56 63 63 70 73 79 79 87 94 105 112 112 124 130 135 135 140 145 153 153 147 153 153 161 177 199 199 224
18 16 19 19 19 11 4 1 0 0 nan nan 0 0 nan nan 0 0 0 0 0 0 nan 0 0 0 0 0 1 1 0 nan nan nan nan 0 5 5 6 2 2 8 18 24 24 29 35 39 39 41 39 34 40 40 40 34 34 48 54 61 61 68 74 80 80 87 100 118 129 129 137 144 144 144 154 153 156 156 151 149 149 159 177 195 195 214
21 23 17 7 7 2 2 0 nan nan nan nan nan nan 0 nan nan nan 1 1 1 2 1 1 1 1 1 2 1 1 0 nan nan nan nan nan nan nan nan nan nan nan nan nan nan nan 12 28 28 29 30 27 32 32 37 36 36 48 56 64 64 72 78 89 89 100 112 123 135 135 145 147 144 144 147 149 148 148 141 139 139 148 157 171 171 189
21 10 6 4 4 2 0 0 nan nan nan nan 0 0 1 0 1 1 3 2 2 2 2 1 1 2 2 3 1 1 nan nan nan nan nan 0 0 0 nan nan nan nan nan nan nan nan 4 7 7 1 17 17 19 19 24 36 36 51 61 72 72 77 86 95 95 102 116 125 129 129 127 125 128 128 133 135 135 135 132 133 133 131 136 149 149 162
9 6 5 4 4 2 1 0 nan nan nan nan 1 1 1 2 4 4 2 2 2 3 5 7 7 5 4 0 nan nan nan nan nan nan nan nan nan nan nan nan nan nan nan nan nan nan 1 nan nan nan nan 0 2 2 16 31 31 60 68 78 78 86 91 98 98 100 108 112 117 117 114 115 116 116 118 115 120 120 122 120 120 124 127 135 135 142
6 6 6 5 5 3 0 nan nan nan nan nan 0 0 2 3 4 4 7 6 6 9 8 7 7 5 1 nan nan nan nan nan nan nan nan nan nan nan nan nan nan nan nan nan nan nan nan nan nan nan nan 2 22 22 37 47 47 65 73 82 82 84 86 90 90 91 94 99 99 99 102 101 104 104 105 105 111 111 112 115 115 118 120 126 126 129
5 6 6 4 4 3 1 0 0 0 0 nan 1 1 4 5 6 6 6 7 7 10 10 5 5 2 0 nan nan nan nan nan nan nan nan nan nan nan nan nan nan nan nan nan nan nan nan nan nan nan nan 9 30 30 38 50 50 63 73 76 76 78 82 81 81 81 85 86 89 89 93 92 94 94 100 102 107 107 110 113 113 118 121 119 119 119
11 8 6 5 5 2 1 0 nan nan 1 0 5 5 7 8 6 6 5 9 9 7 5 4 4 nan nan nan nan nan nan nan nan nan nan nan nan nan nan nan nan nan nan nan nan nan nan nan nan nan nan 26 35 35 39 51 51 59 66 69 69 71 72 73 73 72 75 76 79 79 82 87 92 92 95 98 103 103 109 114 114 116 115 121 121 120
13 9 5 4 4 1 2 1 1 1 2 4 8 8 6 6 6 6 8 8 8 6 2 0 0 nan nan nan nan nan nan nan nan nan nan nan nan nan nan nan nan nan nan nan nan nan nan nan nan 1 20 32 34 34 39 45 45 53 57 61 61 63 65 67 67 67 69 73 73 73 76 80 83 83 88 91 100 100 102 107 107 108 111 118 118 117
9 6 8 4 4 4 5 5 6 6 7 13 9 9 7 6 9 9 8 4 4 3 nan nan nan nan nan nan nan nan nan nan nan nan 0 nan nan nan nan nan nan nan nan nan nan nan nan nan nan nan 12 22 27 27 31 38 38 43 47 53 53 55 58 60 60 60 65 68 67 67 67 68 70 70 76 80 80 80 89 94 94 100 103 108 108 112
7 5 6 3 3 6 8 8 10 10 20 20 11 11 11 10 10 10 6 2 2 0 0 0 0 1 1 0 nan nan nan 0 nan nan nan nan nan nan nan nan nan nan nan nan nan nan nan nan nan nan 0 17 24 24 28 33 33 38 42 47 47 50 51 51 51 55 56 57 59 59 59 60 64 64 67 69 72 72 80 86 86 95 101 104 104 111
8 8 5 7 7 7 12 6 16 16 22 17 10 10 16 9 5 5 2 0 0 0 3 4 4 4 3 2 1 1 nan nan nan nan nan nan nan nan nan nan nan nan nan nan nan nan nan nan nan nan 1 19 24 24 27 31 31 36 39 44 44 43 46 44 44 45 46 48 49 49 51 52 57 57 62 63 67 67 76 83 83 89 95 101 101 108
9 6 5 7 7 7 6 2 5 5 16 10 18 18 13 6 2 2 1 1 1 4 6 6 6 6 5 2 0 0 nan nan nan nan nan nan nan nan nan nan nan nan nan nan nan nan nan nan nan nan 3 24 25 25 27 30 30 34 35 35 35 38 38 38 38 38 39 42 44 44 44 47 51 51 52 54 60 60 67 77 77 86 91 99 99 103
7 9 10 7 7 2 2 4 5 5 12 16 16 16 10 3 2 2 3 5 5 9 9 11 11 8 3 1 nan nan nan nan nan nan nan nan nan nan nan nan nan nan nan nan nan nan nan nan nan nan nan 15 20 20 23 27 27 31 30 30 30 33 33 35 35 34 34 37 37 37 37 40 43 43 44 45 50 50 55 63 63 70 80 85 85 92
6 8 6 5 5 8 9 13 28 28 31 23 10 10 5 10 16 16 10 11 11 9 8 5 5 2 1 5 nan nan nan nan nan nan nan nan nan nan nan nan nan nan nan nan nan nan nan nan nan nan nan 1 17 17 22 26 26 27 27 28 28 30 29 29 29 29 29 29 32 32 31 34 35 35 36 39 39 39 43 51 51 58 66 71 71 80
22 19 17 39 39 93 124 140 130 130 85 18 5 5 5 8 9 9 6 6 6 4 4 1 1 2 0 0 nan nan nan nan nan nan nan nan nan nan nan nan nan nan nan nan nan nan nan nan nan nan nan nan 11 11 17 20 20 23 25 26 26 25 24 24 24 24 25 25 24 24 27 30 32 32 33 36 37 37 38 43 43 48 55 60 60 70
63 78 108 131 131 128 111 86 77 77 74 50 19 19 8 4 4 4 5 2 2 2 1 nan nan 0 0 0 nan nan nan nan nan nan nan nan nan nan nan nan nan nan nan nan nan nan nan nan nan nan nan nan nan nan 13 18 18 22 20 20 20 19 19 19 19 22 21 23 24 24 26 28 30 30 30 34 36 36 38 40 40 45 47 50 50 58
73 94 98 88 88 66 55 49 50 50 52 56 61 61 32 5 4 4 3 1 1 1 nan 0 0 nan 0 0 nan nan nan nan nan nan nan nan nan nan nan nan nan nan nan nan nan nan 5 0 0 nan nan nan nan nan 3 15 15 16 17 16 16 15 16 16 16 18 18 18 21 21 25 26 30 30 29 33 33 33 34 39 39 42 44 39 39 14
78 73 57 41 41 36 32 33 34 34 36 39 48 48 31 5 3 3 2 2 2 nan nan 0 0 0 nan nan nan nan nan nan nan nan nan nan nan nan nan nan nan nan nan nan nan nan nan nan nan nan nan nan nan nan nan 8 8 11 12 12 12 12 12 13 13 15 16 18 20 20 23 24 27 27 26 29 29 29 31 33 33 39 33 22 22 6
31 24 17 15 15 16 14 7 16 16 27 31 37 37 27 6 2 2 1 0 0 nan 0 1 1 0 nan 0 nan nan nan nan nan nan nan nan nan nan nan nan nan nan nan nan nan nan nan nan nan nan nan nan nan nan nan nan nan nan 0 8 8 7 9 12 12 13 16 17 19 19 22 22 24 24 23 24 24 24 24 27 27 28 13 5 5 4
nan nan nan nan nan 0 0 0 6 6 20 29 28 28 18 4 1 1 1 0 0 nan nan nan nan 1 nan nan nan nan nan nan nan nan nan nan nan nan nan nan nan 0 nan nan nan nan nan nan nan nan nan nan nan nan nan nan nan nan nan nan nan nan 5 9 9 12 15 16 17 17 18 19 19 19 19 18 19 19 20 25 25 23 6 2 2 1
nan nan nan nan nan 0 0 0 0 0 1 1 2 2 8 7 5 5 1 0 0 0 nan nan nan nan nan nan nan nan nan nan nan nan nan nan nan nan nan nan nan nan nan nan nan nan nan nan nan nan nan nan nan nan nan nan nan nan nan nan nan nan 0 4 4 5 4 8 10 10 12 10 10 10 11 14 14 14 17 22 22 26 9 1 1 2
0 nan nan 0 0 1 nan nan 0 0 1 0 0 0 1 3 8 8 3 0 0 nan nan nan nan nan nan nan nan nan nan nan 1 1 5 nan nan nan nan nan nan nan nan nan nan nan nan nan nan nan nan nan nan nan nan nan nan nan nan nan nan nan nan nan nan nan 0 1 2 2 6 7 8 8 9 10 13 13 16 21 21 28 28 3 3 0
0 2 1 1 1 0 0 nan nan nan nan nan 1 1 1 2 2 2 3 0 0 nan nan nan nan nan nan nan nan nan nan nan 2 2 4 nan nan nan nan nan nan nan nan nan nan nan nan nan nan nan nan nan nan nan nan nan nan nan nan nan nan nan nan nan nan nan nan nan nan nan nan nan 2 2 4 7 9 9 15 23 23 30 38 22 22 10
1 1 2 1 1 1 1 0 0 0 0 0 nan nan 0 1 0 0 1 0 0 0 nan nan nan nan nan nan nan nan nan nan 0 0 6 nan nan nan nan nan nan nan nan nan nan nan nan nan nan 0 nan nan nan nan nan nan nan nan nan nan nan nan nan nan nan nan nan nan nan nan nan nan nan nan nan 3 9 9 17 25 25 30 36 47 47 36
2 2 2 1 1 2 1 2 1 1 1 0 nan nan nan nan nan nan nan nan nan 1 2 0 0 nan nan nan nan nan nan nan 0 0 7 nan nan nan nan nan nan nan nan nan nan nan nan nan nan nan 1 nan nan nan nan nan nan nan nan nan nan nan nan nan nan nan nan nan nan nan nan nan nan nan nan 7 15 15 21 24 24 27 35 44 44 47
2 1 2 2 2 1 2 1 1 1 1 0 nan nan 0 0 nan nan nan nan nan nan nan 3 3 1 4 nan nan nan nan nan nan nan 0 nan nan nan nan nan nan nan nan nan nan nan nan nan nan nan nan nan nan nan nan nan nan nan nan nan nan nan nan nan nan nan nan nan nan nan nan nan nan nan nan 9 12 12 16 23 23 24 31 37 37 42
2 3 2 2 2 1 1 0 0 0 0 0 nan nan 0 nan nan nan nan nan nan nan nan nan nan nan 6 15 4 4 2 0 nan nan nan nan nan nan nan nan nan 0 nan nan nan nan nan nan nan nan nan nan nan nan 0 nan nan nan nan nan nan nan nan nan nan nan nan nan nan nan nan nan nan nan nan nan nan nan nan nan nan 8 22 28 28 36
2 1 2 3 3 2 0 0 0 0 nan nan nan nan nan nan nan nan nan nan nan nan nan 0 0 nan nan 0 7 7 8 3 nan nan nan nan nan nan nan nan nan nan nan nan nan nan nan nan nan nan nan nan nan nan nan nan nan nan nan nan nan nan nan nan nan nan nan nan nan nan nan nan nan nan nan nan nan nan nan nan nan 1 3 2 2 17
3 2 2 4 4 2 1 0 nan nan nan nan 0 0 0 nan nan nan nan nan nan nan 0 1 1 2 1 4 3 3 0 nan nan nan nan nan nan nan nan nan nan nan nan nan nan nan nan nan nan nan nan nan nan nan nan nan nan nan 3 nan nan nan nan nan nan nan nan nan nan nan nan nan nan nan nan nan nan nan nan nan nan nan 2 nan nan nan
6 3 2 2 2 2 0 nan nan nan nan nan nan nan nan nan nan nan nan nan nan nan 1 1 1 1 nan nan nan nan nan nan nan nan nan nan nan nan nan nan nan nan nan nan nan nan nan nan nan nan nan nan nan nan nan nan nan 5 7 nan nan nan nan nan nan nan nan nan nan nan nan nan 0 0 nan nan nan nan nan nan nan nan 1 nan nan nan
9 4 1 0 0 0 nan 0 1 1 0 nan nan nan nan nan nan nan nan nan nan nan nan nan nan 0 nan nan nan nan nan nan nan nan nan nan nan nan nan nan nan nan nan nan nan nan nan nan nan nan nan nan nan nan nan nan nan 0 3 nan nan nan nan nan nan nan nan nan nan nan 1 nan nan nan nan nan nan nan nan nan nan 4 6 nan nan nan
5 3 0 nan nan nan nan 1 1 1 0 nan nan nan nan nan nan nan nan nan nan nan nan nan nan nan nan nan nan nan nan nan nan nan nan nan nan nan nan nan nan nan nan nan nan nan nan nan nan nan nan nan nan nan nan nan nan nan nan nan nan nan nan nan nan nan nan nan nan nan nan nan nan nan nan nan nan nan nan 0 0 15 12 0 0 nan
2 nan nan 0 0 nan 1 1 0 0 nan nan nan nan nan nan nan nan nan nan nan nan nan nan nan nan nan nan nan nan nan nan nan nan nan nan nan nan nan nan nan nan nan nan nan nan nan nan nan nan nan nan nan nan nan nan nan nan nan nan nan nan nan nan nan nan nan nan nan nan nan nan nan nan nan nan nan nan nan nan nan nan 2 0 0 nan
nan nan 0 1 1 1 nan nan nan nan nan nan nan nan nan nan 0 0 nan nan nan nan nan nan nan nan nan nan nan nan nan nan nan nan nan nan 2 2 nan nan nan nan nan nan nan nan nan nan nan nan nan nan nan nan nan nan nan nan nan nan nan nan nan nan nan nan nan nan nan nan nan nan nan nan nan nan nan nan nan nan nan nan nan nan nan nan
nan 0 0 0 0 nan nan nan nan nan nan nan nan nan nan nan nan nan nan nan nan nan nan nan nan nan nan nan nan nan nan nan nan nan nan nan nan nan nan nan nan nan nan nan nan nan nan nan nan nan nan nan nan nan nan nan nan nan nan nan nan nan nan nan nan nan nan nan nan nan nan nan nan nan nan nan nan nan nan nan nan nan nan nan nan nan
0 0 nan nan nan nan nan nan nan nan nan nan nan nan nan nan nan nan nan nan nan nan nan nan nan nan nan nan nan nan nan nan nan nan nan nan nan nan nan nan nan 1 nan nan nan nan nan nan nan nan nan nan nan nan nan nan nan nan nan nan nan nan nan nan nan nan nan nan nan nan nan nan nan nan nan nan nan nan nan nan nan nan nan nan nan nan
0 0 nan nan nan nan nan nan nan nan nan nan nan nan nan nan nan nan nan nan nan nan 1 nan nan nan nan nan nan nan nan nan nan nan nan nan nan nan nan nan nan nan nan 1 1 2 nan nan nan nan nan nan nan nan nan nan nan nan nan nan nan nan nan nan nan nan nan nan nan nan nan nan nan nan nan nan nan nan nan nan nan nan nan nan nan nan
0 nan nan nan nan nan nan nan nan nan nan nan nan nan nan 1 11 11 nan nan nan nan nan nan nan nan nan nan nan nan 0 nan nan nan nan nan nan nan nan nan nan nan nan nan nan nan nan nan nan nan nan nan nan nan nan nan nan nan nan nan nan nan nan nan nan nan nan nan nan nan nan nan nan nan nan nan nan nan nan nan nan nan nan nan nan nan
nan nan nan nan nan nan nan nan nan nan nan nan nan nan nan nan nan nan nan nan nan nan nan nan nan nan nan nan nan nan nan nan nan nan nan nan nan nan nan nan nan nan nan nan nan nan nan nan nan 0 5 nan nan nan nan nan nan nan nan nan nan nan nan nan nan nan nan nan nan nan nan nan nan nan nan nan nan nan nan nan nan nan nan nan nan nan
0 nan nan nan nan nan nan nan nan nan nan nan nan nan nan nan nan nan nan nan nan nan nan nan nan nan nan nan nan nan nan nan nan nan nan nan nan nan nan nan nan nan nan nan nan nan nan nan nan nan nan 13 1 1 nan nan nan nan nan nan nan nan nan nan nan nan nan nan nan nan nan nan nan nan nan nan nan nan nan nan nan nan nan nan nan nan
CIN
nan nan nan nan nan nan nan nan nan nan nan nan nan nan nan nan nan nan -8 -4 -4 -17 -13 -15 -15 -15 -1 -0 -0 -0 -0 -0 -0 -0 -0 -0 -0 -0 -0 -0 -0 -0 -0 -0 -0 -0 -0 -0 -0 -0 -0 -0 -0 -0 -0 -0 -0 -0 -0 -0 -0 -0 -0 -0 -0 -0 -0 -0 -0 -0 -0 -0 -0 -0 -0 -0 -0 -0 -0 -0 -0 -0 -0 -0 -0 -0
nan nan nan nan nan nan nan nan nan nan nan nan nan nan nan nan -7 -7 -12 -5 -5 -10 -6 -7 -7 -10 -7 -0 -0 -0 -0 -0 -0 -0 -0 -0 -0 -0 -0 -0 -0 -0 -0 -0 -0 -0 -0 -0 -0 -0 -0 -0 -0 -0 -0 -0 -0 -0 -0 -0 -0 -0 -0 -0 -0 -0 -0 -0 -0 -0 -0 -0 -0 -0 -0 -0 -0 -0 -0 -0 -0 -0 -0 -0 -0 -0
nan nan nan nan nan nan nan nan nan nan nan nan -0 -0 -0 -0 -8 -8 -12 -1 -1 -1 -1 -3 -3 -8 -2 -3 -0 -0 -0 -0 -0 -0 -0 -0 -0 -0 -0 -0 -0 -0 -0 -0 -0 -0 -0 -0 -0 -0 -0 -0 -0 -0 -0 -0 -0 -0 -0 -0 -0 -0 -0 -0 -0 -0 -0 -0 -0 -0 -0 -0 -0 -0 -0 -0 -0 -0 -0 -0 -0 -0 -0 -0 -0 -0
nan nan nan nan nan nan nan nan nan nan -0 -0 -0 -0 -6 -10 -10 -10 -7 -2 -2 -1 -1 -1 -1 -2 -18 -11 -0 -0 -0 -0 -0 -0 -0 -0 -0 -0 -0 -0 -0 -0 -0 -0 -0 -0 -0 -0 -0 -0 -0 -0 -0 -0 -0 -0 -0 -0 -0 -0 -0 -0 -0 -0 -0 -0 -0 -0 -0 -0 -0 -0 -0 -0 -0 -0 -0 -0 -0 -0 -0 -0 -0 -0 -0 -0
nan nan nan nan nan nan nan nan -0 -0 -1 -0 -1 -1 -10 -8 -9 -9 -12 -7 -7 -0 -0 -0 -0 -0 nan -39 -8 -8 -0 -0 -0 -0 -0 -0 -0 -0 -0 -0 -0 -0 -0 -0 -0 -0 -0 -0 -0 -0 -0 -0 -0 -0 -0 -0 -0 -0 -0 -0 -0 -0 -0 -0 -0 -0 -0 -0 -0 -0 -0 -0 -0 -0 -0 -0 -0 -0 -0 -0 -0 -0 -0 -0 -0 -0
nan nan nan nan nan nan nan -0 -5 -5 -3 -12 -0 -0 -3 -5 -11 -11 -17 -17 -17 -8 -9 -2 -2 -0 nan nan -0 -0 -0 -0 -0 -0 -0 -0 -0 -0 -0 -0 -0 -0 -0 -0 -0 -0 -0 -0 -0 -0 -0 -0 -0 -0 -0 -0 -0 -0 -0 -0 -0 -0 -0 -0 -0 -0 -0 -0 -0 -0 -0 -0 -0 -0 -0 -0 -0 -0 -0 -0 -0 -0 -0 -0 -0 -0
-0 -0 -0 -0 -0 -0 -4 nan -7 -7 -6 -8 -6 -6 -8 -10 -14 -14 -16 -20 -20 -10 -16 -10 -10 nan nan nan -0 -0 -0 -0 -0 -0 -0 -0 -0 -0 -0 -0 -0 -0 -0 -0 -0 -0 -0 -0 -0 -0 -0 -0 -0 -0 -0 -0 -0 -0 -0 -0 -0 -0 -0 -0 -0 -0 -0 -0 -0 -0 -0 -0 -0 -0 -0 -0 -0 -0 -0 -0 -0 -0 -0 -0 -0 -0
-0 -0 -2 -7 -7 -6 -0 -8 -4 -4 -5 -6 -5 -5 -5 -10 -25 -25 -54 -56 -56 -29 nan nan nan nan nan nan nan nan nan nan nan nan -0 -0 -0 -0 -0 -0 -0 -0 -0 -0 -0 -0 -0 -0 -0 -0 -0 -0 -0 -0 -0 -0 -0 -0 -0 -0 -0 -0 -0 -0 -0 -0 -0 -0 -0 -0 -0 -0 -0 -0 -0 -0 -0 -0 -0 -0 -0 -0 -0 -0 -0 -0
-6 -6 -5 -7 -7 -3 -4 -4 -2 -2 -6 -13 -15 -15 -12 -3 -9 -9 -29 -35 -35 -46 nan nan nan nan nan nan nan nan -0 -0 -0 -0 -0 -3 -9 -9 -0 -0 -0 -0 -0 -0 -0 -0 -0 -0 -0 -0 -0 -0 -0 -0 -0 -0 -0 -0 -0 -0 -0 -0 -0 -0 -0 -0 -0 -0 -0 -0 -0 -0 -0 -0 -0 -0 -0 -0 -0 -0 -0 -0 -0 -0 -0 -0
-9 -7 -5 -12 -12 -18 -4 -1 -7 -7 -28 -30 -30 -30 -24 -8 -0 -0 -6 -5 -5 nan nan nan nan nan nan nan nan nan -0 -0 -0 -0 -0 -0 -0 -0 -0 -0 -0 -0 -0 -0 -0 -0 -0 -0 -0 -0 -0 -0 -0 -0 -0 -0 -0 -0 -0 -0 -0 -0 -0 -0 -0 -0 -0 -0 -0 -0 -0 -0 -0 -0 -0 -0 -0 -0 -0 -0 -0 -0 -0 -0 -0 -0
-1 -2 -11 -11 -11 -8 -12 -16 -22 -22 -40 -33 -20 -20 -12 -17 -17 -17 -0 nan nan nan nan nan nan nan -6 nan -1 -1 -5 nan -10 -10 -0 -0 -0 -0 -0 -0 -0 -0 -0 -0 -0 -0 -0 -0 -0 -0 -0 -0 -0 -0 -0 -0 -0 -0 -0 -0 -0 -0 -0 -0 -0 -0 -0 -0 -0 -0 -0 -0 -0 -0 -0 -0 -0 -0 -0 -0 -0 -0 -0 -0 -0 -0
-3 -6 -8 -6 -6 -6 -9 -16 -19 -19 nan nan -4 -4 nan nan -36 -36 -9 -0 -0 -0 nan -9 -9 -20 -19 -8 -1 -1 -6 nan nan nan nan -24 -14 -14 -4 -6 -6 -0 -0 -0 -0 -0 -0 -0 -0 -0 -0 -0 -0 -0 -0 -0 -0 -0 -0 -0 -0 -0 -0 -0 -0 -0 -0 -0 -0 -0 -0 -0 -0 -0 -0 -0 -0 -0 -0 -0 -0 -0 -0 -0 -0 -0
-6 -6 -5 -4 -4 -10 -3 -4 nan nan nan nan nan nan -5 nan nan nan -21 -0 -0 -0 -3 -9 -9 -15 -18 -16 -10 -10 -7 nan nan nan nan nan nan nan nan nan nan nan nan nan nan nan -0 -0 -0 -0 -0 -0 -0 -0 -0 -0 -0 -0 -0 -0 -0 -0 -0 -0 -0 -0 -0 -0 -0 -0 -0 -0 -0 -0 -0 -0 -0 -0 -0 -0 -0 -0 -0 -0 -0 -0
-4 -8 -9 -9 -9 -6 -3 -0 nan nan nan nan -6 -6 -6 -7 -4 -4 -3 -0 -0 -6 -8 -9 -9 -11 -8 -9 -19 -19 nan nan nan nan nan -12 -29 -29 nan nan nan nan nan nan nan nan -0 -0 -0 -1 -0 -0 -0 -0 -0 -0 -0 -0 -0 -0 -0 -0 -0 -0 -0 -0 -0 -0 -0 -0 -0 -0 -0 -0 -0 -0 -0 -0 -0 -0 -0 -0 -0 -0 -0 -0
-10 -8 -7 -6 -6 -4 -4 -3 nan nan nan nan -5 -5 -5 -2 -0 -0 -6 -6 -6 -10 -9 -9 -9 -10 -5 -12 nan nan nan nan nan nan nan nan nan nan nan nan nan nan nan nan nan nan -6 nan nan nan nan -3 -0 -0 -0 -0 -0 -0 -0 -0 -0 -0 -0 -0 -0 -0 -0 -0 -0 -0 -0 -0 -0 -0 -0 -0 -0 -0 -0 -0 -0 -0 -0 -0 -0 -0
-10 -8 -6 -6 -6 -3 -0 nan nan nan nan nan -6 -6 -5 -1 -2 -2 -4 -7 -7 -8 -8 -7 -7 -6 -10 nan nan nan nan nan nan nan nan nan nan nan nan nan nan nan nan nan nan nan nan nan nan nan nan -0 -0 -0 -0 -0 -0 -0 -0 -0 -0 -0 -0 -0 -0 -0 -0 -0 -0 -0 -0 -0 -0 -0 -0 -0 -0 -0 -0 -0 -0 -0 -0 -0 -0 -0
-12 -10 -8 -6 -6 -3 -1 -0 -1 -1 -3 nan -6 -6 -8 -4 -6 -6 -8 -7 -7 -5 -5 -6 -6 -7 -9 nan nan nan nan nan nan nan nan nan nan nan nan nan nan nan nan nan nan nan nan nan nan nan nan -0 -0 -0 -0 -0 -0 -0 -0 -0 -0 -0 -0 -0 -0 -0 -0 -0 -0 -0 -0 -0 -0 -0 -0 -0 -0 -0 -0 -0 -0 -0 -0 -0 -0 -0
-8 -8 -7 -5 -5 -0 -1 -0 nan nan -10 -6 -3 -3 -5 -7 -10 -10 -10 -6 -6 -5 -7 -5 -5 nan nan nan nan nan nan nan nan nan nan nan nan nan nan nan nan nan nan nan nan nan nan nan nan nan nan -0 -0 -0 -0 -0 -0 -0 -0 -0 -0 -0 -0 -0 -0 -0 -0 -0 -0 -0 -0 -0 -0 -0 -0 -0 -0 -0 -0 -0 -0 -0 -0 -0 -0 -0
-5 -6 -6 -5 -5 -5 -0 -4 -0 -0 -4 -7 -6 -6 -9 -9 -10 -10 -7 -7 -7 -6 -9 -7 -7 nan nan nan nan nan nan nan nan nan nan nan nan nan nan nan nan nan nan nan nan nan nan nan nan -20 -0 -0 -0 -0 -0 -0 -0 -0 -0 -0 -0 -0 -0 -0 -0 -0 -0 -0 -0 -0 -0 -0 -0 -0 -0 -0 -0 -0 -0 -0 -0 -0 -0 -0 -0 -0
-5 -8 -2 -5 -5 -5 -7 -4 -1 -1 -4 -8 -10 -10 -8 -8 -8 -8 -7 -10 -10 -10 nan nan nan nan nan nan nan nan nan nan nan nan -9 nan nan nan nan nan nan nan nan nan nan nan nan nan nan nan -0 -0 -0 -0 -0 -0 -0 -0 -0 -0 -0 -0 -0 -0 -0 -0 -0 -0 -0 -0 -0 -0 -0 -0 -0 -0 -0 -0 -0 -0 -0 -0 -0 -0 -0 -0
-5 -6 -3 -6 -6 -8 -7 -5 -1 -1 -3 -11 -9 -9 -5 -6 -6 -6 -9 -10 -10 -11 -9 -7 -7 -5 -6 -4 nan nan nan -11 nan nan nan nan nan nan nan nan nan nan nan nan nan nan nan nan nan nan -4 -0 -0 -0 -0 -0 -0 -0 -0 -0 -0 -0 -0 -0 -0 -0 -0 -0 -0 -0 -0 -0 -0 -0 -0 -0 -0 -0 -0 -0 -0 -0 -0 -0 -0 -0
-2 -3 -6 -7 -7 -8 -3 -13 -9 -9 -8 -13 -5 -5 -2 -4 -7 -7 -10 -10 -10 -7 -4 -4 -4 -5 -5 -4 -4 -4 nan nan nan nan nan nan nan nan nan nan nan nan nan nan nan nan nan nan nan nan -2 -0 -0 -0 -0 -0 -0 -0 -0 -0 -0 -0 -0 -0 -0 -0 -0 -0 -0 -0 -0 -0 -0 -0 -0 -0 -0 -0 -0 -0 -0 -0 -0 -0 -0 -0
-3 -4 -3 -5 -5 -9 -13 -25 -20 -20 -8 -10 -1 -1 -5 -11 -10 -10 -10 -8 -8 -4 -2 -4 -4 -6 -7 -7 -11 -11 nan nan nan nan nan nan nan nan nan nan nan nan nan nan nan nan nan nan nan nan -0 -0 -0 -0 -0 -0 -0 -0 -0 -0 -0 -0 -0 -0 -0 -0 -0 -0 -0 -0 -0 -0 -0 -0 -0 -0 -0 -0 -0 -0 -0 -0 -0 -0 -0 -0
-3 -4 -6 -14 -14 -38 -36 -19 -20 -20 -10 -8 -9 -9 -13 -15 -11 -11 -9 -6 -6 -4 -4 -4 -4 -5 -8 -7 nan nan nan nan nan nan nan nan nan nan nan nan nan nan nan nan nan nan nan nan nan nan nan -0 -0 -0 -0 -0 -0 -0 -0 -0 -0 -0 -0 -0 -0 -0 -0 -0 -0 -0 -0 -0 -0 -0 -0 -0 -0 -0 -0 -0 -0 -0 -0 -0 -0 -0
-10 -11 -18 -24 -24 -31 -20 -12 -4 -4 -5 -9 -13 -13 -14 -5 -2 -2 -6 -4 -4 -3 -5 -6 -6 -5 -7 -0 nan nan nan nan nan nan nan nan nan nan nan nan nan nan nan nan nan nan nan nan nan nan nan -0 -0 -0 -0 -0 -0 -0 -0 -0 -0 -0 -0 -0 -0 -0 -0 -0 -0 -0 -0 -0 -0 -0 -0 -0 -0 -0 -0 -0 -0 -0 -0 -0 -0 -0
-2 -5 -8 -1 -1 -0 -0 -0 -0 -0 -0 -7 -15 -15 -15 -7 -4 -4 -4 -2 -2 -3 -4 -5 -5 -3 -4 -6 nan nan nan nan nan nan nan nan nan nan nan nan nan nan nan nan nan nan nan nan nan nan nan nan -0 -0 -0 -0 -0 -0 -0 -0 -0 -0 -0 -0 -0 -0 -0 -0 -0 -0 -0 -0 -0 -0 -0 -0 -0 -0 -0 -0 -0 -0 -0 -0 -0 -0
-0 -0 -0 -0 -0 -0 -0 -0 -0 -0 -0 -0 -0 -0 -8 -12 -4 -4 -1 -2 -2 -4 -2 nan nan -3 -2 -5 nan nan nan nan nan nan nan nan nan nan nan nan nan nan nan nan nan nan nan nan nan nan nan nan nan nan -0 -0 -0 -0 -0 -0 -0 -0 -0 -0 -0 -0 -0 -0 -0 -0 -0 -0 -0 -0 -0 -0 -0 -0 -0 -0 -0 -0 -0 -0 -0 -0
-0 -0 -0 -0 -0 -0 -0 -0 -0 -0 -0 -0 -0 -0 -0 -7 -2 -2 -1 -2 -2 -3 nan -2 -2 nan -2 -4 nan nan nan nan nan nan nan nan nan nan nan nan nan nan nan nan nan nan -0 -0 -0 nan nan nan nan nan -0 -0 -0 -0 -0 -0 -0 -0 -0 -0 -0 -0 -0 -0 -0 -0 -0 -0 -0 -0 -0 -0 -0 -0 -0 -0 -0 -0 -0 -0 -0 -11
-0 -0 -0 -0 -0 -0 -0 -0 -0 -0 -0 -0 -0 -0 -0 -6 -1 -1 -1 -2 -2 nan nan -1 -1 -1 nan nan nan nan nan nan nan nan nan nan nan nan nan nan nan nan nan nan nan nan nan nan nan nan nan nan nan nan nan -0 -0 -0 -0 -0 -0 -0 -0 -0 -0 -0 -0 -0 -0 -0 -0 -0 -0 -0 -0 -0 -0 -0 -0 -0 -0 -0 -0 -7 -7 -13
-0 -0 -0 -0 -0 -0 -0 -0 -0 -0 -0 -0 -0 -0 -0 -6 -4 -4 -4 -5 -5 nan -1 -1 -1 -1 nan -5 nan nan nan nan nan nan nan nan nan nan nan nan nan nan nan nan nan nan nan nan nan nan nan nan nan nan nan nan nan nan -0 -0 -0 -0 -0 -0 -0 -0 -0 -0 -0 -0 -0 -0 -0 -0 -0 -0 -0 -0 -0 -0 -0 -0 -12 -19 -19 -12
nan nan nan nan nan -0 -0 -9 -0 -0 -0 -0 -0 -0 -0 -7 -9 -9 -10 -8 -8 nan nan nan nan -0 nan nan nan nan nan nan nan nan nan nan nan nan nan nan nan -9 nan nan nan nan nan nan nan nan nan nan nan nan nan nan nan nan nan nan nan nan -0 -0 -0 -0 -0 -0 -0 -0 -0 -0 -0 -0 -0 -0 -0 -0 -0 -0 -0 -0 -17 -19 -19 -11
nan nan nan nan nan -5 -2 -2 -10 -10 -10 -12 -8 -8 -0 -0 -3 -3 -14 -14 -14 -9 nan nan nan nan nan nan nan nan nan nan nan nan nan nan nan nan nan nan nan nan nan nan nan nan nan nan nan nan nan nan nan nan nan nan nan nan nan nan nan nan -0 -0 -0 -0 -0 -0 -0 -0 -0 -0 -0 -0 -0 -0 -0 -0 -0 -0 -0 -0 -11 -13 -13 -5
-1 nan nan -3 -3 -2 nan nan -9 -9 -10 -13 -11 -11 -11 -2 -0 -0 -7 -15 -15 nan nan nan nan nan nan nan nan nan nan nan -0 -0 -0 nan nan nan nan nan nan nan nan nan nan nan nan nan nan nan nan nan nan nan nan nan nan nan nan nan nan nan nan nan nan nan -5 -0 -0 -0 -0 -0 -0 -0 -0 -0 -0 -0 -0 -0 -0 -0 -0 -13 -13 -6
-0 -0 -0 -2 -2 -4 -3 nan nan nan nan nan -4 -4 -6 -6 -5 -5 -4 -13 -13 nan nan nan nan nan nan nan nan nan nan nan -0 -0 -0 nan nan nan nan nan nan nan nan nan nan nan nan nan nan nan nan nan nan nan nan nan nan nan nan nan nan nan nan nan nan nan nan nan nan nan nan nan -0 -0 -0 -0 -0 -0 -0 -0 -0 -0 -0 -3 -3 -4
-1 -3 -3 -3 -3 -4 -5 -6 -7 -7 -7 -8 nan nan -6 -5 -12 -12 -13 -11 -11 -12 nan nan nan nan nan nan nan nan nan nan -0 -0 -0 nan nan nan nan nan nan nan nan nan nan nan nan nan nan -2 nan nan nan nan nan nan nan nan nan nan nan nan nan nan nan nan nan nan nan nan nan nan nan nan nan -0 -0 -0 -0 -0 -0 -0 -0 -0 -0 -0
-2 -1 -3 -3 -3 -2 -5 -3 -5 -5 -4 -7 nan nan nan nan nan nan nan nan nan -6 -4 -12 -12 nan nan nan nan nan nan nan -2 -2 -0 nan nan nan nan nan nan nan nan nan nan nan nan nan nan nan -0 nan nan nan nan nan nan nan nan nan nan nan nan nan nan nan nan nan nan nan nan nan nan nan nan -0 -0 -0 -0 -0 -0 -0 -0 -0 -0 -0
-1 -3 -3 -3 -3 -2 -2 -6 -7 -7 -6 -8 nan nan -10 -16 nan nan nan nan nan nan nan -1 -1 -6 -3 nan nan nan nan nan nan nan -8 nan nan nan nan nan nan nan nan nan nan nan nan nan nan nan nan nan nan nan nan nan nan nan nan nan nan nan nan nan nan nan nan nan nan nan nan nan nan nan nan -0 -0 -0 -0 -0 -0 -0 -0 -0 -0 -0
-0 -1 -1 -2 -2 -5 -5 -7 -5 -5 -5 -9 nan nan -9 nan nan nan nan nan nan nan nan nan nan nan -7 -3 -20 -20 -21 -22 nan nan nan nan nan nan nan nan nan -3 nan nan nan nan nan nan nan nan nan nan nan nan -4 nan nan nan nan nan nan nan nan nan nan nan nan nan nan nan nan nan nan nan nan nan nan nan nan nan nan -0 -0 -0 -0 -0
-3 -5 -4 -0 -0 -3 -6 -4 -3 -3 nan nan nan nan nan nan nan nan nan nan nan nan nan -19 -19 nan nan -38 -15 -15 -12 -23 nan nan nan nan nan nan nan nan nan nan nan nan nan nan nan nan nan nan nan nan nan nan nan nan nan nan nan nan nan nan nan nan nan nan nan nan nan nan nan nan nan nan nan nan nan nan nan nan nan -6 -5 -7 -7 -0
-0 -3 -3 -0 -0 -1 -6 -2 nan nan nan nan -5 -5 -9 nan nan nan nan nan nan nan -17 -16 -16 -12 -17 -11 -12 -12 -22 nan nan nan nan nan nan nan nan nan nan nan nan nan nan nan nan nan nan nan nan nan nan nan nan nan nan nan -4 nan nan nan nan nan nan nan nan nan nan nan nan nan nan nan nan nan nan nan nan nan nan nan -6 nan nan nan
-0 -2 -2 -0 -0 -0 -2 nan nan nan nan nan nan nan nan nan nan nan nan nan nan nan -9 -9 -9 -10 nan nan nan nan nan nan nan nan nan nan nan nan nan nan nan nan nan nan nan nan nan nan nan nan nan nan nan nan nan nan nan -3 -0 nan nan nan nan nan nan nan nan nan nan nan nan nan -13 -13 nan nan nan nan nan nan nan nan -6 nan nan nan
-0 -0 -0 -3 -3 -4 nan -9 -6 -6 -8 nan nan nan nan nan nan nan nan nan nan nan nan nan nan -9 nan nan nan nan nan nan nan nan nan nan nan nan nan nan nan nan nan nan nan nan nan nan nan nan nan nan nan nan nan nan nan -9 -3 nan nan nan nan nan nan nan nan nan nan nan -8 nan nan nan nan nan nan nan nan nan nan -4 -2 nan nan nan
-0 -0 -3 nan nan nan nan -4 -3 -3 -5 nan nan nan nan nan nan nan nan nan nan nan nan nan nan nan nan nan nan nan nan nan nan nan nan nan nan nan nan nan nan nan nan nan nan nan nan nan nan nan nan nan nan nan nan nan nan nan nan nan nan nan nan nan nan nan nan nan nan nan nan nan nan nan nan nan nan nan nan -10 -10 -0 -1 -6 -6 nan
-0 nan nan -8 -8 nan -5 -3 -6 -6 nan nan nan nan nan nan nan nan nan nan nan nan nan nan nan nan nan nan nan nan nan nan nan nan nan nan nan nan nan nan nan nan nan nan nan nan nan nan nan nan nan nan nan nan nan nan nan nan nan nan nan nan nan nan nan nan nan nan nan nan nan nan nan nan nan nan nan nan nan nan nan nan -6 -8 -8 nan
nan nan -6 -4 -4 -4 nan nan nan nan nan nan nan nan nan nan -5 -5 nan nan nan nan nan nan nan nan nan nan nan nan nan nan nan nan nan nan -14 -14 nan nan nan nan nan nan nan nan nan nan nan nan nan nan nan nan nan nan nan nan nan nan nan nan nan nan nan nan nan nan nan nan nan nan nan nan nan nan nan nan nan nan nan nan nan nan nan nan
nan -4 -3 -4 -4 nan nan nan nan nan nan nan nan nan nan nan nan nan nan nan nan nan nan nan nan nan nan nan nan nan nan nan nan nan nan nan nan nan nan nan nan nan nan nan nan nan nan nan nan nan nan nan nan nan nan nan nan nan nan nan nan nan nan nan nan nan nan nan nan nan nan nan nan nan nan nan nan nan nan nan nan nan nan nan nan nan
-4 -2 nan nan nan nan nan nan nan nan nan nan nan nan nan nan nan nan nan nan nan nan nan nan nan nan nan nan nan nan nan nan nan nan nan nan nan nan nan nan nan -23 nan nan nan nan nan nan nan nan nan nan nan nan nan nan nan nan nan nan nan nan nan nan nan nan nan nan nan nan nan nan nan nan nan nan nan nan nan nan nan nan nan nan nan nan
-2 -2 nan nan nan nan nan nan nan nan nan nan nan nan nan nan nan nan nan nan nan nan -1 nan nan nan nan nan nan nan nan nan nan nan nan nan nan nan nan nan nan nan nan -16 -16 -12 nan nan nan nan nan nan nan nan nan nan nan nan nan nan nan nan nan nan nan nan nan nan nan nan nan nan nan nan nan nan nan nan nan nan nan nan nan nan nan nan
-2 nan nan nan nan nan nan nan nan nan nan nan nan nan nan -1 -0 -0 nan nan nan nan nan nan nan nan nan nan nan nan -2 nan nan nan nan nan nan nan nan nan nan nan nan nan nan nan nan nan nan nan nan nan nan nan nan nan nan nan nan nan nan nan nan nan nan nan nan nan nan nan nan nan nan nan nan nan nan nan nan nan nan nan nan nan nan nan
nan nan nan nan nan nan nan nan nan nan nan nan nan nan nan nan nan nan nan nan nan nan nan nan nan nan nan nan nan nan nan nan nan nan nan nan nan nan nan nan nan nan nan nan nan nan nan nan nan -32 -23 nan nan nan nan nan nan nan nan nan nan nan nan nan nan nan nan nan nan nan nan nan nan nan nan nan nan nan nan nan nan nan nan nan nan nan
-1 nan nan nan nan nan nan nan nan nan nan nan nan nan nan nan nan nan nan nan nan nan nan nan nan nan nan nan nan nan nan nan nan nan nan nan nan nan nan nan nan nan nan nan nan nan nan nan nan nan nan -1 -19 -19 nan nan nan nan nan nan nan nan nan nan nan nan nan nan nan nan nan nan nan nan nan nan nan nan nan nan nan nan nan nan nan nan
Wind_Speed
7 7 8 9 10 10 9 11 12 12 11 10 10 10 10 11 11 12 14 14 14 13 13 13 14 15 17 20 23 25 26 26 26 26 26 26 26 26 26 27 27 27 28 28 28 28 29 29 29 29 28 28 28 28 28 28 28 28 28 29 29 29 29 29 29 29 29 29 29 29 29 29 29 29 29 29 29 30 30 30 29 29 28 28 28 28
7 7 7 9 11 11 9 11 11 12 12 12 11 11 11 12 11 11 11 12 13 13 12 13 14 15 17 18 21 23 24 25 25 26 26 26 26 26 27 27 27 28 28 29 29 29 29 29 29 28 28 28 28 28 28 28 28 28 28 29 29 29 29 29 29 29 29 29 29 29 29 29 29 29 29 29 29 29 30 30 30 30 29 29 28 28
8 7 7 8 9 10 9 10 11 11 12 13 12 12 13 13 12 10 9 10 11 11 12 12 13 14 16 16 19 21 23 24 25 25 26 26 26 27 27 28 28 28 29 29 29 29 29 29 28 28 28 28 28 28 28 28 28 29 29 29 29 29 29 29 29 29 29 29 29 29 29 29 29 28 28 28 28 28 29 29 29 29 29 29 29 29
8 8 8 7 8 9 10 10 11 11 11 12 13 14 14 12 10 9 9 10 11 11 12 13 13 13 13 13 15 18 22 23 24 25 26 26 27 27 28 28 28 29 29 29 29 28 28 28 28 28 28 28 28 28 28 28 29 29 29 29 29 29 29 29 29 29 29 29 29 29 29 28 28 28 28 28 28 28 28 29 29 29 29 29 29 30
8 8 8 7 8 8 9 10 10 10 10 10 11 12 12 10 9 9 9 10 11 12 11 12 12 12 11 11 13 16 21 23 25 26 27 27 27 28 28 28 28 28 28 28 28 28 28 28 28 28 28 28 28 28 29 29 28 28 28 28 28 28 29 29 29 28 28 28 28 28 28 28 28 27 27 27 28 28 28 28 28 28 28 29 29 30
8 8 8 8 7 7 8 8 9 9 9 9 9 9 9 9 9 9 10 10 10 11 10 10 11 11 11 11 13 17 21 23 25 26 27 27 27 28 28 28 28 28 28 28 28 28 28 28 28 28 28 28 28 28 28 28 28 28 28 28 28 28 28 28 28 28 28 28 28 27 27 27 27 27 27 27 27 27 28 28 28 28 28 29 29 29
8 7 7 8 8 7 7 7 8 8 8 8 8 8 8 9 9 10 10 10 10 10 9 9 10 10 11 12 14 17 19 21 23 24 25 26 26 27 27 27 28 28 28 28 28 28 28 28 28 28 28 28 28 28 28 28 28 28 28 28 28 28 28 28 28 28 28 28 27 27 27 27 27 27 27 27 27 27 27 27 28 28 28 28 28 29
9 8 8 8 8 7 7 6 7 7 8 8 8 8 9 8 9 9 10 10 10 9 9 9 9 9 10 11 13 14 15 16 17 18 20 21 22 23 25 26 27 27 27 27 27 27 27 28 28 28 28 28 28 28 28 28 28 28 28 28 28 27 27 27 27 27 27 27 27 27 27 27 26 26 26 26 26 26 27 27 27 28 28 28 28 29
10 10 9 8 8 8 7 6 6 7 8 8 8 9 10 10 9 9 8 9 8 8 8 8 9 9 10 11 12 12 13 14 14 14 16 16 17 19 21 23 24 25 26 26 27 27 27 27 28 28 28 28 28 28 28 28 28 27 27 27 27 27 27 27 27 27 27 27 27 27 27 26 26 26 26 26 26 26 27 27 27 28 28 28 28 29
10 10 9 8 6 5 6 6 7 7 8 8 8 9 9 11 10 10 9 8 7 7 7 8 9 10 10 10 11 12 13 14 16 18 19 18 19 20 21 21 21 22 24 25 26 26 27 27 27 28 28 28 28 27 27 27 27 27 26 26 26 26 26 26 26 26 26 26 26 26 26 26 26 26 26 26 26 26 27 27 27 28 28 28 29 29
9 8 7 6 5 4 5 6 7 7 9 9 9 9 8 9 9 10 10 9 8 8 8 8 9 9 10 10 10 11 11 12 13 15 17 19 20 21 21 21 20 21 23 24 25 25 26 26 27 27 27 27 27 27 26 26 26 26 26 25 25 25 25 26 26 26 26 26 26 26 26 26 26 27 27 27 27 27 27 27 27 28 28 28 29 29
7 6 5 5 5 5 6 7 7 8 9 9 9 8 8 7 7 8 10 10 10 9 9 9 9 9 10 10 10 10 10 10 11 11 11 13 14 14 15 15 16 17 19 20 21 22 24 25 25 26 25 25 25 25 25 24 24 25 25 25 25 25 25 25 25 26 26 26 26 27 27 27 27 27 27 27 27 27 27 27 27 27 28 28 29 29
6 5 5 6 6 7 8 8 8 8 8 8 8 8 8 7 7 7 8 9 10 10 10 9 9 9 9 9 9 9 9 10 10 10 10 9 9 10 10 10 11 12 12 13 14 15 19 21 22 23 23 23 23 24 24 24 24 24 24 25 25 25 25 25 26 26 26 27 27 27 27 27 27 27 27 28 28 28 28 28 28 28 28 28 28 29
6 6 6 7 8 8 8 9 9 8 8 7 8 8 8 7 8 8 8 9 9 9 10 10 10 9 8 8 9 9 9 9 9 9 9 9 9 9 9 10 10 10 10 11 11 12 15 16 17 17 20 21 21 22 22 22 23 24 24 25 25 25 26 26 26 27 27 27 27 27 28 28 28 28 28 28 28 28 28 28 28 28 28 28 28 29
7 7 8 8 8 8 8 8 9 9 8 7 8 8 8 8 8 8 8 9 9 9 9 10 10 9 7 7 7 8 9 9 9 9 10 9 9 9 9 10 11 11 11 11 11 12 14 13 12 12 14 17 18 19 21 22 23 24 25 26 26 26 27 27 27 27 27 27 28 28 28 28 28 28 28 28 28 28 28 28 28 28 28 28 28 29
7 7 8 9 9 8 8 8 8 8 8 8 8 8 8 8 8 8 8 9 9 8 8 9 9 8 7 6 7 8 9 9 9 9 10 10 9 9 10 11 11 11 11 11 11 11 11 11 11 12 13 16 19 22 24 24 25 26 26 27 27 27 27 27 27 27 27 28 28 28 28 28 28 28 28 28 28 28 28 28 28 29 29 29 29 29
8 8 8 8 8 8 8 8 8 8 8 8 8 8 8 8 8 8 8 8 8 7 7 8 8 8 7 6 7 7 8 8 9 9 10 10 10 10 9 10 11 11 11 11 10 10 10 10 10 11 11 16 20 23 25 26 26 27 27 27 27 27 27 27 28 28 28 28 28 28 28 28 28 28 28 28 28 28 29 29 29 29 29 29 29 29
8 8 8 8 8 8 8 8 8 8 8 8 8 7 7 7 7 8 8 8 7 7 7 7 7 7 7 7 7 7 8 9 9 9 10 11 10 10 9 10 10 11 11 11 10 10 10 10 10 11 13 19 23 25 26 27 27 27 27 27 28 28 28 28 28 28 28 28 28 28 28 28 28 28 28 28 28 29 29 29 29 29 29 29 30 30
8 8 8 8 8 8 7 7 7 7 7 7 7 7 8 8 8 8 8 8 7 8 8 8 8 8 8 9 9 9 9 9 9 10 10 11 10 10 9 10 10 11 11 11 10 10 10 10 12 15 19 23 25 26 26 27 27 27 28 28 28 28 28 28 29 29 29 29 28 28 28 28 28 28 28 28 28 28 28 29 29 29 29 29 29 30
9 8 8 8 8 8 8 7 7 8 8 8 8 9 9 9 9 9 8 8 7 7 7 8 9 9 9 10 10 10 10 9 9 9 10 11 11 10 9 10 10 11 11 10 10 10 10 10 11 14 19 22 24 25 26 27 27 28 28 28 29 29 29 29 29 29 28 28 28 28 28 28 28 28 28 28 28 28 28 28 28 29 29 29 29 30
9 9 8 8 8 7 7 7 8 9 10 9 9 9 9 9 8 8 7 7 7 8 8 9 9 9 9 10 10 11 10 10 9 9 8 8 9 9 8 9 10 11 11 10 10 9 10 10 10 11 15 20 23 25 27 27 28 29 29 29 29 29 29 28 28 28 28 28 28 28 27 27 27 27 28 28 28 28 28 28 28 29 29 29 29 30
9 9 9 10 9 8 8 8 9 10 10 9 9 8 8 7 8 8 8 8 8 9 9 9 9 9 9 10 11 11 11 10 9 8 6 8 9 9 8 8 9 10 11 10 10 10 10 10 10 11 15 20 24 26 28 28 28 29 29 29 29 28 28 28 28 27 27 27 27 27 27 27 27 27 28 28 28 28 28 29 29 29 29 29 30 30
9 9 10 10 9 9 8 8 8 9 9 9 8 8 6 6 7 8 8 8 9 9 10 9 10 10 10 10 11 11 10 9 8 8 7 8 10 9 8 8 9 10 10 10 10 10 10 10 10 12 16 21 25 26 28 28 28 28 28 28 28 28 27 27 27 27 27 27 27 27 27 27 27 28 28 28 28 28 28 29 29 29 29 30 30 30
10 10 10 9 8 8 7 8 8 8 8 8 8 7 7 7 8 8 8 8 9 9 8 9 9 10 10 10 10 10 9 8 8 7 6 7 9 9 8 8 9 10 11 10 10 10 11 11 11 11 13 19 23 25 27 27 27 27 27 27 27 27 27 27 27 27 27 27 27 27 28 28 28 28 28 28 28 28 28 29 29 29 30 30 30 30
10 10 9 10 10 11 11 12 11 11 10 9 9 9 8 9 10 10 9 9 8 8 8 9 9 9 9 9 9 9 8 8 7 7 6 6 8 9 8 8 9 10 11 10 10 10 11 11 11 11 12 15 20 23 25 26 26 26 26 26 26 26 27 27 27 27 27 27 28 28 28 28 28 28 28 28 28 28 28 29 29 29 30 30 30 30
14 14 15 16 18 20 21 21 20 19 18 15 12 9 9 9 9 8 8 8 8 8 8 9 9 9 8 8 7 8 7 7 7 7 6 6 7 8 8 8 8 10 11 10 10 10 11 12 12 12 11 13 16 20 22 24 25 25 25 26 26 27 27 27 27 27 27 28 28 28 28 28 28 28 28 28 28 28 29 29 29 29 30 30 29 29
21 22 23 23 23 22 22 22 22 23 23 20 17 14 11 9 8 8 8 8 8 8 8 9 9 9 8 8 7 7 7 7 6 6 7 7 7 8 7 7 8 9 11 10 10 10 12 12 12 12 11 11 12 15 19 22 23 24 25 26 26 27 27 27 27 27 27 27 27 27 27 27 27 27 28 28 28 28 28 29 29 29 29 28 25 23
21 21 20 20 20 20 21 21 21 21 21 21 20 18 14 9 8 8 8 8 7 7 8 8 9 9 8 8 7 7 8 7 7 7 7 6 6 6 7 7 8 9 10 10 10 11 12 12 11 11 11 10 10 12 15 19 21 23 24 25 26 26 27 27 27 27 27 27 27 27 27 27 27 27 27 27 28 28 28 29 29 28 27 23 18 14
17 17 17 18 18 19 19 19 18 18 19 19 19 17 13 8 7 8 8 7 7 7 8 9 9 9 8 8 8 8 9 8 7 7 7 6 6 6 7 8 8 8 9 9 9 9 9 8 9 9 9 10 10 11 12 15 17 19 20 23 24 25 25 25 26 26 26 26 26 26 27 27 27 27 27 27 27 28 28 29 28 26 21 16 13 11
12 13 14 15 15 15 15 14 14 15 16 17 17 15 12 8 7 7 7 7 7 8 8 9 9 9 8 8 8 8 8 7 6 6 6 6 6 6 7 8 8 8 7 7 7 7 7 6 6 7 8 10 11 10 10 11 12 13 14 17 19 20 22 24 24 25 25 26 26 26 26 26 26 26 27 27 27 28 28 29 27 22 14 12 11 10
10 11 10 11 11 11 10 10 10 11 13 14 14 12 10 8 7 7 7 6 7 7 8 8 9 9 8 7 7 7 6 6 7 7 6 5 5 6 7 8 8 8 7 6 7 7 8 6 6 6 8 10 10 10 10 10 10 10 10 12 13 15 19 21 22 23 23 24 25 25 26 26 26 26 27 27 27 28 29 29 27 21 13 11 10 11
10 9 9 9 9 8 8 8 8 8 9 9 9 9 8 8 7 7 6 6 6 7 8 8 9 9 8 8 7 7 7 7 8 9 8 6 5 6 7 8 8 8 7 7 7 7 8 7 7 7 8 9 10 10 10 10 10 10 10 10 11 12 16 18 19 19 19 21 22 23 24 25 26 26 26 27 27 28 28 29 27 22 14 11 11 11
9 8 8 8 8 8 7 7 7 7 7 7 7 7 7 8 8 8 7 6 6 7 7 8 9 9 9 9 9 9 8 9 10 10 10 7 6 6 6 8 9 9 9 8 8 8 7 8 8 8 9 9 8 9 10 10 10 10 10 10 10 11 14 14 15 15 15 17 18 19 21 23 24 24 25 26 27 27 28 28 27 24 18 13 12 12
9 9 9 8 8 8 8 8 7 7 7 7 7 7 7 7 8 8 7 7 7 7 7 8 8 9 9 9 9 9 10 10 11 12 11 8 6 6 7 8 9 9 9 8 8 8 8 9 10 9 9 9 8 8 9 10 10 10 9 9 10 10 11 11 11 12 13 13 13 14 15 17 18 20 22 23 24 25 26 27 27 27 24 18 15 13
8 9 8 8 8 8 8 8 8 8 7 7 7 7 7 7 7 7 7 7 7 7 7 8 8 9 9 9 9 10 10 11 12 12 12 9 7 6 7 8 8 9 9 8 8 8 8 10 11 11 10 10 9 8 8 9 9 9 9 9 10 10 10 10 10 11 12 12 12 12 12 12 13 14 16 19 21 23 25 27 28 29 29 26 22 18
8 8 8 8 8 8 8 8 8 8 8 7 7 7 7 7 8 8 8 8 8 9 9 9 9 9 9 9 10 11 11 11 12 13 13 10 8 7 7 8 8 9 9 9 9 9 9 10 11 12 12 11 10 9 8 8 9 9 9 10 10 10 10 10 10 11 11 11 11 11 11 11 11 12 13 18 21 24 26 28 29 29 29 29 27 24
8 8 8 8 8 8 8 8 8 8 8 7 7 7 8 8 8 8 8 8 9 9 10 11 11 11 12 11 11 11 12 12 12 13 13 12 10 8 8 8 9 10 9 10 10 10 10 10 11 11 11 10 9 9 8 9 9 9 10 10 10 10 10 10 10 10 10 11 12 12 12 12 12 12 13 18 21 22 24 26 26 26 27 27 27 27
8 8 8 7 7 7 7 7 8 8 8 8 8 8 9 9 9 9 9 9 10 10 11 10 10 12 14 15 14 14 14 14 15 15 15 13 11 10 9 9 10 10 10 10 10 10 10 10 11 11 10 10 10 11 11 11 10 10 10 10 10 10 10 10 10 10 10 11 12 13 13 13 12 12 12 14 14 14 16 16 18 20 22 23 24 26
7 8 8 8 8 7 7 8 8 8 8 8 8 9 9 10 10 10 9 10 10 10 11 11 10 11 13 14 15 16 16 16 15 15 14 12 11 10 10 10 11 11 10 10 10 10 10 10 10 11 10 10 10 11 11 10 11 11 11 11 10 9 9 9 10 10 10 11 12 13 13 12 11 11 11 11 11 11 12 13 14 15 16 15 16 19
8 8 8 8 8 8 8 8 8 8 8 9 9 10 10 9 9 9 9 9 10 10 11 11 11 11 11 12 14 14 15 13 13 12 12 10 9 9 10 10 11 11 11 10 10 10 10 11 11 12 12 11 11 11 11 11 11 12 12 11 9 8 9 10 10 10 10 11 11 12 12 11 11 11 11 11 11 11 12 11 12 13 13 12 12 13
8 8 8 8 8 8 8 9 9 9 9 9 9 8 8 8 8 8 8 9 9 9 10 10 10 10 11 11 12 13 13 13 13 12 11 11 11 11 10 10 10 11 11 11 10 10 11 11 12 12 12 12 12 12 12 12 13 14 15 12 11 10 11 11 11 11 10 10 10 11 12 12 12 12 12 12 12 11 11 11 12 13 13 12 11 10
8 8 8 8 8 8 8 9 9 10 10 9 8 8 8 7 7 8 8 9 9 9 8 8 9 10 11 11 12 12 12 12 12 12 12 12 12 12 11 10 10 10 10 11 11 11 11 11 11 12 12 11 11 11 11 12 13 13 13 13 13 13 12 12 10 9 10 10 10 11 12 12 12 11 12 12 12 11 11 12 13 15 14 12 11 10
8 8 8 8 8 8 9 10 10 9 9 8 8 8 8 7 7 8 9 9 9 9 9 9 9 9 10 11 11 11 11 10 11 12 12 12 12 12 12 12 12 11 10 10 11 11 11 11 11 11 11 11 11 12 13 13 12 12 12 13 12 11 9 9 9 9 10 10 11 11 11 11 11 11 11 11 11 11 11 13 15 16 15 13 11 11
7 7 8 8 8 8 9 9 8 8 8 8 8 8 8 8 8 9 9 9 9 9 9 9 9 9 10 11 11 11 10 10 11 12 12 12 12 12 12 13 13 12 11 10 10 10 11 11 11 11 11 11 11 12 12 12 12 12 12 12 12 11 10 10 10 11 11 11 11 11 11 11 11 11 11 12 11 11 11 11 11 12 13 12 11 11
7 7 8 8 8 8 8 8 8 8 8 9 9 9 8 8 9 9 8 9 9 10 9 9 8 8 9 10 10 10 10 10 10 10 10 12 13 14 13 12 12 12 11 10 10 10 10 10 11 11 10 10 11 11 12 12 12 12 12 12 12 12 12 11 12 12 12 12 12 12 12 12 11 11 12 12 12 11 11 12 12 12 12 11 11 11
7 7 8 8 8 8 9 9 9 9 9 9 9 9 9 9 8 8 9 9 10 10 9 9 8 8 9 10 10 9 10 10 10 9 9 9 10 10 11 11 11 11 10 10 10 10 10 10 11 11 11 11 11 11 12 12 12 12 12 12 11 11 11 11 11 11 12 12 12 12 12 12 11 11 11 12 12 12 12 12 12 12 12 11 11 11
7 8 8 8 8 8 8 9 9 9 9 9 9 9 9 9 9 9 9 9 9 9 9 9 9 9 10 10 10 10 10 10 10 10 9 9 9 9 10 10 11 11 11 10 11 11 11 11 11 11 11 11 11 11 11 11 11 12 12 11 11 11 11 11 11 11 11 11 12 12 12 11 11 12 12 13 13 13 12 12 11 11 11 11 10 10
8 8 8 8 8 8 9 9 9 9 9 9 9 9 9 9 10 10 10 10 9 9 9 9 9 9 10 10 10 10 11 11 11 11 10 10 10 9 9 9 10 10 11 11 12 12 12 12 12 11 11 11 11 11 11 11 11 11 11 11 11 11 11 11 11 11 11 11 12 11 10 10 10 12 13 13 13 13 13 12 11 11 10 9 9 9
8 8 8 8 8 9 9 9 9 9 9 10 10 10 9 10 11 12 10 10 9 9 9 9 9 10 10 10 11 11 12 12 11 11 10 10 10 9 9 10 10 10 11 11 11 11 11 11 11 11 10 10 10 11 11 11 10 10 10 10 10 10 11 11 11 11 11 12 12 11 10 9 10 11 12 13 14 14 14 13 12 11 9 8 8 8
8 8 8 8 8 8 9 9 9 9 10 10 10 10 10 10 10 10 9 9 9 9 9 9 10 10 11 11 11 11 12 11 11 10 10 10 9 9 10 10 10 11 11 10 9 8 8 7 7 8 10 10 10 10 10 10 10 10 9 9 9 10 10 11 11 11 12 12 12 12 11 11 10 10 10 12 13 14 15 14 12 11 9 8 9 9
8 8 8 8 8 8 9 9 9 9 10 10 10 10 10 10 10 9 9 9 9 9 9 9 10 10 11 11 12 12 12 11 11 11 10 10 9 9 10 10 10 11 11 10 9 8 6 6 6 6 7 10 11 10 8 8 9 9 9 8 8 8 9 10 11 12 12 12 12 11 11 11 10 10 9 10 11 13 14 14 13 12 11 10 10 11
Wind_Direction
303 306 308 309 307 303 300 302 302 302 302 302 302 302 302 302 300 299 299 298 297 296 295 294 293 293 294 294 294 294 294 294 294 294 295 296 296 297 297 297 297 297 297 297 297 296 296 295 295 294 293 292 291 291 290 289 289 289 288 288 287 287 287 286 286 286 286 286 286 286 286 287 287 287 287 287 287 287 286 285 284 283 282 281 280 279
303 304 306 307 305 302 298 302 302 302 302 302 301 301 300 299 298 297 296 295 295 295 295 294 294 294 293 293 293 293 293 294 294 295 296 297 297 298 299 299 299 298 298 297 296 296 295 294 293 292 292 291 291 290 290 289 289 289 288 288 288 288 288 288 288 287 287 287 287 287 287 287 286 286 286 285 285 284 283 283 282 282 281 280 280 279
306 305 304 304 302 301 300 302 301 299 298 298 298 298 297 297 297 296 296 296 296 295 294 294 294 293 292 291 292 293 294 295 296 297 298 299 300 300 300 300 299 298 297 296 295 294 293 293 292 292 292 291 291 291 291 290 290 290 289 289 289 289 289 289 288 288 288 288 288 287 287 286 286 285 285 284 283 282 281 281 280 280 280 280 280 279
304 303 304 303 300 298 297 299 298 296 294 294 295 295 296 295 295 296 297 297 296 294 293 292 291 291 291 291 292 294 296 297 299 300 301 301 301 301 301 299 298 297 296 295 294 294 293 293 293 293 293 292 292 292 292 291 291 290 290 290 290 289 289 289 289 288 288 288 287 287 287 286 286 285 284 283 283 282 281 281 280 280 280 280 280 279
301 301 302 301 298 295 294 293 293 293 292 292 294 295 297 296 295 295 294 293 293 292 292 291 291 291 291 292 295 297 299 301 302 303 303 302 302 300 299 298 297 296 295 295 294 294 294 294 294 294 293 293 293 292 292 291 291 291 290 290 290 289 289 289 288 288 288 288 287 287 287 286 286 285 284 284 283 282 281 281 280 280 280 279 278 278
298 297 298 296 294 292 292 292 292 292 292 292 294 296 297 296 295 294 293 292 292 292 292 292 292 293 294 297 300 302 303 304 304 303 303 301 300 299 298 297 296 296 295 295 295 295 295 294 294 294 294 293 293 292 292 291 291 291 290 290 290 289 289 289 289 288 288 288 288 288 287 287 286 286 285 284 283 282 281 281 280 279 278 278 277 276
294 292 293 291 289 288 288 290 292 294 296 296 296 295 294 293 293 293 294 294 294 293 292 292 294 296 299 302 305 306 306 305 303 302 300 299 298 297 297 297 296 296 295 295 295 295 295 295 294 294 294 293 293 292 292 292 292 291 291 291 291 290 290 290 290 289 289 289 289 289 288 287 287 286 285 284 283 282 281 280 280 279 278 277 276 275
294 292 289 288 288 288 287 288 293 296 298 298 299 299 297 294 293 293 294 293 293 294 295 297 299 302 304 306 307 306 304 302 300 299 298 297 297 297 296 296 296 296 295 295 295 295 295 295 294 294 294 293 293 293 293 293 293 292 292 292 291 291 291 291 291 290 290 290 290 289 289 288 287 286 285 284 283 282 281 281 279 279 278 277 276 275
289 289 287 286 288 292 294 293 294 295 295 297 299 301 302 300 298 295 294 293 295 298 302 304 306 305 305 305 304 302 299 297 296 295 296 296 296 296 296 296 295 295 296 296 296 296 296 295 295 295 294 294 294 294 293 293 293 293 292 292 292 291 291 291 291 291 290 290 290 289 289 288 287 286 285 284 283 282 281 280 279 278 277 276 275 275
281 283 285 287 288 290 293 295 296 296 296 296 297 298 300 300 300 300 299 299 301 305 307 307 306 305 303 302 300 298 296 294 294 294 294 295 296 296 296 296 296 296 296 297 297 297 296 296 296 295 295 294 294 294 293 293 293 292 292 292 292 291 291 291 290 290 290 289 289 288 287 286 285 284 283 282 281 280 279 278 277 276 275 274 274 273
282 282 285 289 290 287 285 291 296 300 301 298 295 294 293 297 301 304 305 305 306 307 306 304 303 302 302 301 299 297 296 294 294 294 294 295 296 296 296 297 297 297 297 298 298 298 297 297 296 295 295 294 294 293 293 293 292 292 292 292 291 291 290 290 289 288 288 287 287 286 286 285 284 283 282 281 279 278 277 276 275 274 274 273 272 272
286 288 290 293 295 295 294 296 298 300 301 300 298 297 296 299 302 305 306 307 308 307 306 302 300 298 299 299 299 297 296 294 294 294 295 296 297 297 298 298 298 298 298 298 298 297 297 296 296 295 294 294 294 293 293 293 292 292 292 291 290 290 289 288 287 287 286 286 285 285 284 284 283 282 282 281 280 279 278 277 276 275 275 274 273 272
287 291 294 298 300 302 302 302 301 300 300 299 300 301 303 306 307 306 304 305 305 306 305 302 299 296 295 295 295 295 295 294 294 295 297 298 299 299 299 299 299 299 299 298 297 296 296 296 295 295 294 294 293 293 293 292 292 291 291 290 289 288 288 287 287 286 286 285 285 285 284 284 283 283 282 282 281 281 280 279 278 277 276 275 274 274
294 298 299 300 301 301 301 300 299 299 299 300 301 302 305 308 308 307 303 302 302 302 301 298 296 295 294 293 293 293 295 295 295 296 297 297 299 301 302 300 299 299 299 297 295 295 295 296 295 294 294 293 293 293 292 291 291 290 290 290 289 288 288 288 287 287 286 286 286 285 285 284 284 283 283 282 282 281 280 279 279 278 277 276 275 274
302 304 302 300 299 298 298 298 298 299 300 302 304 305 307 307 307 305 302 300 300 300 299 295 293 292 291 293 295 296 297 297 297 298 298 298 300 302 303 301 299 297 297 296 294 294 295 294 292 291 291 291 290 290 291 291 291 291 291 291 290 290 289 289 288 288 287 287 286 286 286 285 284 284 283 282 281 281 280 279 278 277 276 275 275 274
302 301 298 297 296 296 296 297 298 300 303 305 306 307 306 304 303 302 300 299 299 299 297 296 295 294 292 294 297 299 300 299 299 299 300 299 301 303 304 301 298 296 294 293 292 292 293 291 289 288 288 289 290 291 292 292 292 292 292 292 291 291 290 290 289 289 288 288 287 287 286 286 285 284 283 282 281 280 279 278 277 276 275 274 274 273
297 295 293 294 294 295 297 299 300 302 304 304 302 300 299 298 299 299 298 297 296 295 294 297 300 302 302 301 300 300 302 301 301 300 300 299 299 301 302 298 295 293 292 290 290 290 291 289 288 287 287 289 291 292 293 293 293 293 293 292 292 292 291 291 291 290 290 289 288 287 287 286 285 284 283 281 280 279 278 277 276 275 274 273 273 272
292 292 292 292 293 296 299 299 299 299 298 297 296 295 295 296 296 296 294 292 292 293 296 299 301 302 304 303 303 304 307 304 302 301 299 297 297 298 299 294 290 288 289 289 288 288 288 288 287 288 289 292 293 293 294 294 294 294 293 293 293 293 293 292 292 291 290 289 288 287 286 285 284 283 282 281 280 279 278 277 276 274 274 273 272 271
291 292 292 293 294 295 296 295 294 293 293 294 297 298 298 296 294 292 289 290 291 295 300 301 299 297 296 295 297 302 307 305 303 300 297 295 295 296 296 291 288 286 286 287 287 288 289 289 290 291 292 293 293 294 294 294 294 294 294 294 294 294 293 292 291 290 289 288 287 287 286 285 284 283 282 281 280 279 278 277 276 275 274 273 272 271
293 292 291 293 294 293 291 289 289 292 294 297 299 299 296 294 291 289 288 292 295 297 300 298 296 294 293 293 295 300 305 305 301 296 292 291 292 293 294 291 289 287 286 287 289 292 293 292 292 292 292 293 294 294 295 295 295 295 295 294 294 293 292 291 290 289 289 288 287 287 286 285 285 284 283 282 282 281 280 279 278 277 275 274 273 271
293 291 290 291 291 290 288 288 290 294 297 300 299 296 291 289 288 289 292 298 300 300 298 293 292 292 293 293 295 298 302 301 297 293 290 289 289 290 292 291 290 289 289 290 292 293 293 291 290 291 292 294 295 295 296 295 295 295 294 294 293 292 291 291 290 289 289 288 288 287 287 286 285 285 284 283 283 282 281 281 280 278 277 276 274 273
291 289 289 288 287 286 287 290 292 294 296 295 292 288 286 289 293 298 303 304 302 298 294 290 289 290 291 290 291 293 296 294 292 290 290 288 288 288 292 293 292 292 291 291 293 293 292 291 291 292 294 295 295 295 295 295 294 294 294 293 293 292 292 291 290 290 289 288 288 287 287 286 285 285 284 283 283 282 281 281 280 280 279 277 276 275
284 284 286 286 285 285 288 290 290 290 289 286 283 283 287 295 300 304 306 303 298 293 290 288 288 287 285 285 286 288 289 288 287 287 288 287 288 291 295 295 293 290 289 291 294 296 296 295 295 295 295 295 295 295 295 294 294 294 294 293 293 292 292 292 291 290 290 289 288 288 287 287 286 285 284 283 282 282 281 280 279 279 278 278 277 276
281 283 285 285 285 284 284 285 284 284 283 283 284 288 292 296 298 298 297 294 291 288 287 287 286 285 283 283 285 286 288 289 290 290 287 285 287 290 296 295 292 290 289 293 297 299 299 297 295 294 293 293 294 294 294 294 294 294 294 294 294 293 293 293 292 292 291 290 290 289 288 288 287 286 285 284 282 281 280 279 278 277 277 276 276 275
282 283 284 285 285 284 284 285 286 288 291 293 294 296 298 298 297 295 292 289 287 286 287 288 287 286 286 289 289 289 290 291 291 290 287 284 285 288 292 293 293 292 292 295 298 300 299 296 295 294 292 292 293 294 294 294 295 295 295 295 295 295 295 294 294 293 292 291 291 290 289 288 287 286 285 284 283 282 281 279 278 277 276 276 275 275
288 288 289 290 290 291 292 293 295 297 299 300 300 301 301 301 299 296 291 289 289 290 291 290 288 288 290 292 291 290 291 292 290 288 286 285 286 288 290 292 292 293 293 296 298 300 298 296 295 294 293 293 293 294 295 295 296 296 297 297 297 296 296 295 295 294 293 292 291 290 289 288 287 286 285 284 283 282 282 281 280 279 279 278 277 276
292 293 294 295 296 297 298 300 300 301 302 302 302 302 302 302 298 293 289 290 292 293 293 291 290 291 292 291 290 290 293 293 291 288 285 285 285 287 290 293 294 295 295 296 297 297 296 295 295 295 294 293 293 294 296 297 298 299 299 298 298 297 297 296 295 294 293 292 291 290 289 288 287 286 285 284 284 283 283 283 283 282 282 281 280 278
294 296 298 300 301 302 303 304 304 304 305 304 303 302 301 298 293 289 288 291 293 293 290 290 291 292 293 292 292 293 293 292 290 288 287 285 285 286 292 296 297 297 298 296 295 294 293 292 292 293 293 293 294 296 298 299 300 300 300 299 298 297 296 295 295 294 293 292 291 290 289 288 287 287 286 285 285 285 285 285 285 285 285 284 283 280
297 300 303 304 305 306 307 307 307 306 304 302 301 300 298 293 286 284 287 291 292 291 288 288 288 290 291 293 293 292 290 287 288 291 294 292 288 288 294 297 299 299 300 298 295 292 288 287 288 291 293 296 297 298 299 301 301 300 299 298 297 296 296 295 295 294 294 293 292 291 290 290 289 288 288 287 287 287 286 286 287 286 286 284 281 278
306 308 308 308 308 309 308 307 305 303 301 299 298 297 295 289 283 282 285 288 288 286 286 287 288 289 291 294 294 292 287 286 290 299 305 299 292 291 296 297 298 299 302 302 300 296 290 286 287 291 294 298 299 300 300 301 300 299 298 297 296 296 296 295 295 295 294 294 293 293 292 291 291 290 289 289 288 288 287 287 288 287 285 281 277 273
312 311 309 309 309 308 306 303 300 298 297 296 296 296 293 288 283 281 281 281 281 281 283 285 287 288 290 293 294 292 288 290 298 305 309 299 292 291 297 297 296 297 299 301 301 301 299 297 294 294 297 298 299 299 299 299 298 298 297 297 296 295 295 296 296 296 295 295 294 294 294 293 292 291 290 290 289 288 288 288 288 287 284 279 275 271
311 309 308 308 306 305 301 298 296 294 294 295 294 293 291 288 285 282 280 278 278 278 279 282 284 285 285 284 284 284 286 290 298 303 303 296 290 290 294 293 294 294 295 293 292 294 298 301 302 302 300 298 297 297 297 298 298 297 297 296 295 294 296 297 297 297 296 296 295 295 294 293 292 291 290 289 288 288 287 287 287 286 283 278 275 272
308 307 306 305 303 300 297 296 295 294 294 294 293 292 291 289 287 285 283 280 278 278 278 281 282 283 282 280 278 278 279 285 292 297 299 295 291 289 291 291 292 292 293 289 286 284 285 291 297 301 299 297 296 296 298 298 298 297 296 295 294 294 296 298 297 297 296 296 295 294 294 293 292 291 290 289 288 287 286 286 285 284 282 279 276 273
306 304 303 301 300 298 297 296 296 296 296 296 295 294 293 291 289 288 286 284 281 278 277 278 280 281 283 281 279 278 278 282 288 294 297 294 290 288 290 290 291 291 293 290 287 284 281 285 291 296 298 297 296 296 297 297 297 296 294 293 293 294 296 298 297 296 295 294 294 292 292 291 290 289 288 287 287 286 286 285 285 284 283 281 279 276
303 302 301 300 299 299 298 299 299 299 298 297 296 295 294 293 291 290 288 286 283 280 276 274 274 275 278 280 280 280 281 284 289 293 294 291 288 286 288 287 288 290 291 289 289 288 285 287 289 293 296 297 297 295 294 295 295 295 293 292 292 293 294 295 295 294 294 293 291 290 289 289 288 287 286 286 285 285 285 285 285 285 284 283 281 279
302 301 300 301 301 301 301 301 302 302 300 299 297 295 294 293 292 291 289 287 285 282 279 276 273 271 270 271 273 276 279 283 287 290 290 287 284 283 283 284 286 288 288 287 287 287 286 288 289 291 293 294 295 296 295 295 295 295 294 293 292 291 290 291 291 291 291 291 289 288 287 286 285 284 283 284 285 285 286 286 286 286 285 284 282 279
302 301 302 302 303 303 303 303 304 303 302 300 298 297 296 294 293 291 289 287 284 282 281 278 275 272 268 267 267 269 274 279 283 284 283 282 280 278 278 280 282 283 283 283 285 286 286 288 289 290 289 289 291 295 299 300 299 297 294 293 292 291 290 290 289 288 288 287 286 285 285 285 284 284 284 285 286 286 286 286 286 285 285 284 282 280
302 302 303 304 304 304 304 304 303 302 301 301 300 299 298 296 294 291 289 286 282 280 278 277 275 273 271 270 269 270 272 275 277 279 279 277 276 275 275 278 279 278 276 277 279 282 284 286 288 290 289 287 288 291 296 299 299 297 294 293 291 291 290 290 289 287 285 284 284 284 284 284 284 284 284 284 285 285 285 284 284 285 284 284 282 280
303 303 304 305 305 305 305 303 302 301 300 299 299 298 297 295 293 290 287 285 282 280 278 278 278 278 276 276 275 275 276 277 278 278 278 276 274 273 274 276 276 276 274 273 273 274 276 279 282 285 288 289 290 291 292 294 294 295 296 295 293 289 288 289 289 288 286 285 285 285 284 283 282 281 281 282 282 283 284 285 285 286 286 285 283 281
303 303 303 304 305 305 303 301 300 299 299 298 297 296 295 294 293 290 287 286 285 285 284 284 283 283 283 283 283 282 283 282 281 280 279 275 272 270 271 272 274 274 274 271 269 269 270 272 275 278 282 285 288 290 292 292 292 295 298 298 296 293 292 292 291 288 285 283 282 281 281 281 280 280 280 281 282 282 282 284 285 286 286 284 283 281
304 303 303 304 304 303 300 299 298 297 297 296 295 295 294 294 293 293 292 291 290 290 290 289 288 287 286 285 284 284 285 283 282 280 278 274 271 269 268 269 270 271 272 270 268 267 266 269 273 275 278 280 283 285 287 289 292 295 297 295 294 293 294 292 289 286 284 280 279 278 280 282 283 283 283 282 281 279 278 280 282 283 283 279 276 276
304 303 304 304 304 303 301 299 297 296 295 294 293 292 293 293 294 295 295 295 294 294 294 293 293 292 290 288 287 286 285 283 282 280 278 275 272 269 267 267 267 268 270 270 269 268 266 267 270 273 277 280 283 285 287 288 291 292 293 292 293 294 293 289 286 284 283 282 281 282 283 284 284 285 284 283 281 279 277 276 277 278 278 276 273 270
303 303 302 302 301 299 298 298 297 297 296 295 294 293 293 293 293 293 293 293 294 294 295 294 293 292 291 290 290 290 288 285 283 282 281 279 276 274 271 269 269 269 270 272 272 272 269 268 269 271 275 279 281 283 286 288 290 290 289 289 292 295 294 291 290 288 285 284 284 284 284 284 284 284 284 284 283 283 281 279 277 276 273 272 271 268
300 300 300 299 299 298 299 299 299 299 298 297 295 294 293 293 292 292 292 291 292 293 294 293 292 290 288 288 290 292 292 291 289 287 284 283 280 277 275 274 273 272 272 272 274 275 276 273 272 272 275 277 279 281 283 286 287 288 287 287 286 285 283 287 291 292 290 286 285 284 284 286 287 287 287 286 285 284 283 281 279 276 273 271 269 267
298 298 299 300 300 301 301 300 300 299 298 296 295 295 295 295 295 294 293 292 292 292 293 293 292 290 287 288 290 292 294 295 294 293 289 286 284 283 281 280 279 278 275 272 271 273 275 276 277 277 278 277 277 277 280 283 284 285 284 284 283 281 278 281 285 288 289 288 288 287 288 289 290 290 289 288 287 285 284 283 282 281 278 275 271 268
299 300 301 302 302 301 300 300 300 299 298 297 297 297 298 298 297 295 293 293 292 292 292 291 290 288 286 289 291 293 293 293 293 294 293 292 290 288 286 284 282 281 279 275 272 270 269 272 276 279 282 279 276 275 276 279 282 284 285 285 284 283 281 282 283 284 286 287 288 289 291 292 293 291 289 289 289 288 286 284 283 282 280 277 274 272
303 303 303 303 302 301 299 300 300 300 299 299 299 299 300 300 299 297 295 294 293 292 292 290 288 285 285 287 290 292 292 292 293 293 293 293 293 292 290 287 285 284 281 278 275 272 269 268 270 274 277 279 279 278 277 278 279 281 284 285 286 285 285 284 284 284 285 285 287 289 294 296 295 292 290 290 290 290 289 286 283 281 278 276 275 275
304 303 303 302 301 300 300 300 300 300 299 299 300 300 301 301 301 300 298 296 294 292 291 290 288 286 286 286 288 289 290 291 291 292 293 294 294 294 293 292 290 288 284 281 278 275 272 269 267 267 269 272 275 277 278 278 278 278 281 284 285 285 284 284 285 286 287 287 288 290 294 295 294 293 294 293 292 291 290 289 287 284 280 277 277 278
303 301 301 300 300 299 299 299 300 300 300 300 300 301 301 301 301 300 297 296 294 292 290 289 289 288 288 288 288 289 289 289 290 291 292 294 295 296 295 295 294 292 289 285 282 278 275 270 265 262 260 263 268 273 276 277 277 277 279 281 283 285 286 287 289 291 292 291 291 290 290 289 288 289 291 291 290 290 291 292 291 289 286 281 280 280
300 298 298 298 298 298 298 299 299 300 299 299 300 300 300 300 299 298 295 294 292 291 288 288 289 289 289 289 289 290 290 291 291 291 292 294 296 296 296 296 296 295 294 291 288 285 282 276 268 262 259 263 266 271 276 278 279 280 281 282 284 287 289 290 292 293 294 294 293 292 290 288 286 285 284 284 286 289 292 293 294 294 293 291 289 288
300 298 297 297 297 297 298 299 299 298 298 298 298 298 299 298 298 296 295 294 293 291 289 288 288 288 288 289 290 291 291 292 292 292 293 294 296 297 297 297 297 297 296 296 295 295 293 292 288 281 273 273 274 276 279 283 286 288 288 287 288 290 291 292 293 294 295 294 294 293 291 288 286 283 280 282 285 290 294 295 296 297 299 299 299 297